SCP
0 0 0 0 0 0 0 0 0 0 0 0 0 0 0 0 -0 0 0 0 0 0 0 0 0 0 0 0 0 0 0 0 0 0 0 0 0 0 0 0 0 0 0 0
0 0 0 0 0 0 0 -0 0 -0 0 0 0 0 0 0 0 0 0 0 0 0 0 0 0 0 0 0 0 0 0 0 0 0 0 0 0 0 0 0 0 0 0 0
0 0 0 0 0 0 0 0 0 0 0 -0 -0 0 0 0 0 0 0 0 0 0 0 0 0 0 0 0 0 0 0 0 0 0 0 0 0 0 0 0 0 0 0 0
0 0 0 0 0 0 0 0 0 0 0 0 -0 0 -0 0 0 0 0 0 0 0 0 0 0 0 0 0 0 0 0 0 0 0 0 0 0 0 0 0 0 0 0 0
0 0 0 0 0 0 0 0 0 0 0 0 0 0 0 0 0 0 0 0 0 0 0 0 0 0 0 0 0 0 0 0 0 0 0 0 0 0 0 0 0 0 0 0
0 0 0 0 0 0 0 0 0 0 0 0 0 0 0 0 0 0 0 0 0 0 0 0 0 0 0 0 0 0 0 0 0 0 0 0 0 0 0 0 0 0 0 0
0 0 0 0 0 0 0 0 0 0 0 0 0 0 0 0 0 0 0 0 0 0 0 0 0 0 0 0 0 0 0 0 0 0 0 0 0 0 0 0 0 0 0 0
0 0 0 0 0 0 0 0 0 0 0 0 0 0 0 0 0 0 0 0 0 0 0 0 0 0 0 0 0 0 0 0 0 0 0 0 0 0 0 0 0 0 0 0
0 0 0 0 0 0 0 0 0 0 0 0 0 0 0 0 0 0 0 0 0 0 0 0 0 0 0 0 0 0 0 0 0 0 0 0 0 0 0 0 0 0 0 0
0 -0 0 0 0 0 0 0 0 0 0 0 0 0 0 0 0 0 0 0 0 0 0 0 0 0 0 0 0 0 0 0 0 0 0 0 0 0 0 0 0 0 0 0
0 0 0 0 0 0 0 0 0 0 0 0 0 0 0 0 0 0 0 0 0 0 0 0 0 0 0 0 0 0 0 0 0 0 0 0 0 0 0 0 0 0 0 0
0 0 0 -0 0 0 0 0 0 0 0 0 0 0 0 0 0 0 0 0 0 0 0 0 0 0 0 0 0 0 0 0 0 0 0 0 0 0 0 0 0 0 0 0
0 0 0 0 0 0 0 0 0 0 0 0 0 0 0 0 0 0 0 0 0 0 0 0 0 0 0 0 0 0 0 0 0 0 0 0 0 0 0 0 0 0 0 0
0 -0 -0 -0 -0 0 0 0 0 0 0 0 0 0 0 0 0 0 0 0 0 0 0 0 0 0 0 0 0 0 0 0 0 0 0 0 0 0 0 0 0 0 0 0
0 0 0 0 0 0 0 0 0 0 0 0 0 0 0 0 0 0 0 0 0 0 0 0 0 0 0 0 0 0 0 0 0 0 0 0 0 0 0 0 0 0 0 0
0 -0 -0 -0 0 0 -0 -0 -0 0 0 0 0 0 0 0 0 0 0 0 0 0 0 0 0 0 0 0 0 0 0 0 0 0 0 0 0 0 0 0 0 0 0 0
-0 -0 -0 0 0 0 0 0 -0 -0 -0 0 0 0 0 0 0 0 0 0 0 0 0 0 0 0 0 0 0 0 0 0 0 0 0 0 0 0 0 0 0 0 0 0
0 -0 -0 0 0 -0 -0 -0 0 0 0 0 0 0 0 0 0 0 0 0 0 0 0 0 0 0 0 0 0 0 0 0 0 0 0 0 0 0 0 0 0 0 0 0
0 0 0 0 -0 -0 0 0 0 0 0 0 0 0 0 0 0 0 0 0 0 0 0 0 0 0 0 0 0 0 0 0 0 0 0 0 0 0 0 0 0 0 0 0
0 -0 0 0 0 0 0 0 0 0 0 0 0 0 0 0 0 0 0 0 0 0 0 0 0 0 0 0 0 0 0 0 0 0 0 0 0 0 0 0 0 0 0 0
0 0 0 0 0 0 0 0 0 0 0 0 0 0 0 0 0 0 0 0 0 0 0 0 0 0 0 0 0 0 0 0 0 0 0 0 0 0 0 0 0 0 0 0
-0 0 0 0 0 0 0 0 0 0 0 0 0 0 0 0 0 0 0 0 0 0 0 0 0 0 0 0 0 0 0 0 0 0 0 0 0 0 0 0 0 0 0 0
0 0 0 0 0 0 0 0 0 0 0 0 0 0 0 0 0 0 0 0 0 0 0 0 0 0 0 0 0 0 0 0 0 0 0 0 0 0 0 0 0 0 0 0
0 0 0 0 0 0 0 0 0 0 0 0 0 0 0 0 0 0 0 0 0 0 0 0 0 0 0 0 0 0 0 0 0 0 0 0 0 0 0 0 0 0 0 0
0 0 0 0 0 0 0 0 0 0 0 0 0 0 0 0 0 0 0 0 0 0 0 0 0 0 0 0 0 0 0 0 0 0 0 0 0 0 0 0 0 0 0 0
0 0 0 0 0 0 0 0 0 0 0 0 0 0 0 0 0 0 0 0 0 0 0 0 0 0 0 0 0 0 0 0 0 0 0 0 0 0 0 0 0 0 0 0
0 0 0 0 0 0 0 0 0 0 0 0 0 0 0 0 0 0 0 0 0 0 0 0 0 0 0 0 0 0 0 0 0 0 0 0 0 0 0 0 0 0 0 0
Wind_Speed_500mb
6 7 5 1 8 6 6 2 4 4 4 5 10 10 23 42 45 44 44 50 63 69 67 60 50 43 35 31 34 34 29 24 20 16 13 10 8 7 7 10 13 14 16 18
10 11 11 6 3 7 5 2 3 1 2 6 11 21 22 32 44 43 47 52 65 68 68 61 51 43 36 34 40 33 29 24 20 17 15 12 11 9 10 13 17 19 20 22
7 12 13 8 8 9 3 4 7 7 3 10 6 12 34 40 47 49 52 55 69 75 69 61 52 42 35 41 39 34 30 25 21 19 17 13 11 12 14 17 20 21 23 25
4 8 4 7 3 5 10 9 12 2 2 7 9 9 29 39 48 50 49 53 63 73 69 59 51 44 36 46 41 37 31 26 23 20 16 14 12 14 16 19 22 25 27 29
3 3 11 5 2 6 8 3 5 12 9 1 10 8 4 25 37 42 40 42 54 62 67 63 58 48 44 51 42 36 31 27 22 18 17 15 15 16 20 24 27 29 30 32
4 1 7 9 5 4 4 8 7 3 5 9 9 4 7 5 22 28 29 33 45 51 65 66 60 50 47 49 41 37 31 25 23 19 15 19 19 22 25 28 31 32 32 33
2 3 14 11 9 4 11 5 7 11 11 5 7 10 6 12 6 19 26 30 36 43 55 65 60 51 50 49 40 30 29 27 22 14 22 23 26 27 29 31 31 31 33 36
4 6 11 4 6 5 3 3 8 15 16 7 10 13 9 10 4 15 25 32 34 36 43 56 59 51 48 47 33 30 31 25 17 26 26 27 28 28 29 31 32 32 35 37
13 9 6 3 3 6 2 3 5 13 14 16 16 13 9 7 6 13 21 24 26 30 36 49 52 48 41 37 32 33 29 26 29 28 26 27 28 29 32 32 32 33 35 38
5 2 11 21 20 14 8 3 8 12 16 18 20 20 15 7 6 8 12 15 13 19 27 40 44 40 29 27 29 34 30 28 30 28 27 30 30 31 32 32 33 35 37 38
10 19 30 30 29 21 19 23 21 15 14 13 16 13 9 5 6 10 13 15 13 13 21 29 32 31 25 29 36 31 29 30 30 29 30 31 31 33 32 33 36 37 38 40
10 3 6 4 9 9 9 21 19 19 16 14 14 10 4 5 9 9 9 11 13 14 21 27 29 30 30 34 29 25 26 28 27 28 31 32 33 34 35 37 38 39 41 45
7 4 7 9 12 12 13 10 4 10 12 10 9 4 7 9 11 13 14 14 13 13 18 24 26 26 23 22 22 22 25 27 29 31 32 33 35 37 38 39 40 42 44 47
29 29 24 26 13 11 12 13 13 5 8 9 6 7 10 10 9 11 14 15 17 18 19 20 20 17 17 19 22 25 27 28 30 31 34 37 39 40 41 42 43 42 47 49
19 26 32 17 11 13 17 19 13 6 4 1 4 11 13 13 14 17 19 20 20 18 17 15 14 15 16 19 22 24 27 30 32 35 37 39 40 42 43 45 47 52 52 49
6 11 23 29 22 13 9 5 5 5 6 8 11 17 20 21 23 24 22 19 16 12 10 8 9 16 19 21 24 26 28 32 35 37 38 39 40 41 42 46 51 52 51 52
20 2 11 6 11 13 4 2 6 9 14 14 21 27 28 28 26 23 18 15 11 7 7 11 19 21 20 22 24 27 30 33 35 37 37 39 39 41 45 48 49 48 48 50
14 13 2 11 6 16 10 3 8 14 18 21 27 29 27 25 21 17 13 11 8 7 10 13 15 16 18 21 24 28 31 33 35 36 37 36 37 42 44 45 46 47 46 43
9 16 2 7 5 12 19 10 17 22 24 27 25 23 21 17 13 9 7 7 8 10 11 14 16 19 21 24 27 29 31 33 32 32 33 35 39 40 42 44 44 44 45 45
8 22 6 5 10 18 19 14 20 23 24 23 20 18 15 10 5 3 4 8 11 12 14 17 19 20 21 23 25 25 26 26 28 29 33 35 37 38 39 40 42 43 44 45
22 22 13 12 19 19 17 20 20 20 21 21 19 14 9 6 6 7 9 10 11 14 14 14 15 16 16 16 18 20 23 24 26 29 31 33 35 36 38 39 41 43 45 49
32 21 20 26 24 21 21 22 22 19 17 14 11 7 3 2 3 5 7 7 7 8 8 9 9 12 15 18 18 18 21 22 24 27 29 32 34 35 37 39 42 45 50 56
25 29 33 30 27 27 29 27 26 24 22 21 17 12 8 3 1 2 4 4 5 6 6 7 10 10 10 14 16 17 19 22 25 28 30 33 35 37 40 44 49 56 61 63
38 40 37 37 35 33 33 34 30 26 20 15 11 7 4 1 3 3 4 5 4 5 4 4 7 9 13 15 17 20 23 25 26 29 31 35 39 44 49 55 58 59 58 57
44 40 38 37 35 33 28 26 21 17 11 7 4 2 4 7 6 2 1 2 3 4 6 10 13 15 17 19 22 23 25 28 31 34 39 43 47 50 52 52 52 52 51 50
46 44 40 35 28 23 18 15 10 7 2 3 6 5 3 2 4 6 7 6 6 9 10 12 13 15 18 21 23 26 29 33 37 40 42 44 45 44 45 44 44 46 49 51
48 43 38 33 26 19 13 9 4 3 6 7 5 4 4 5 7 8 7 7 7 8 9 11 13 16 19 23 26 29 31 33 35 36 37 39 41 44 46 48 50 52 55 57
Wind_Direction_500mb
18 348 288 249 132 160 158 187 132 335 18 64 185 179 162 168 174 174 183 190 185 184 186 185 187 187 183 181 177 179 176 173 178 175 185 194 221 244 273 296 303 310 310 309
354 346 13 11 89 189 217 97 292 276 342 35 94 141 159 178 173 176 189 199 194 195 195 193 192 191 191 192 185 184 180 185 187 192 202 213 233 262 283 298 309 308 309 307
308 350 336 6 240 194 183 199 169 212 166 150 99 155 187 196 199 199 200 199 199 201 201 198 197 197 201 192 191 190 189 193 197 204 214 227 250 276 295 300 299 303 304 305
253 7 25 237 290 221 208 224 221 321 93 72 115 213 223 219 212 214 212 206 206 205 202 201 202 202 202 196 198 196 195 197 206 215 230 245 266 277 286 297 304 308 305 301
27 185 281 320 86 159 189 340 238 221 218 209 43 48 279 229 226 227 223 215 213 212 206 203 204 204 204 201 202 200 201 205 213 226 242 259 269 285 298 303 302 298 299 300
57 94 208 256 285 267 208 25 353 5 237 209 117 63 268 315 235 226 226 227 219 218 212 209 207 208 207 206 208 206 207 212 217 223 267 273 284 292 293 292 293 295 295 298
149 235 284 245 259 289 67 250 50 51 23 201 144 213 284 324 270 214 216 210 213 221 213 209 211 208 208 210 213 209 210 215 220 252 287 269 273 279 283 287 291 297 301 299
95 12 302 235 97 92 221 159 96 74 49 47 228 243 291 327 264 195 198 198 203 209 208 207 210 209 211 209 201 215 220 219 236 271 251 258 268 276 287 291 295 297 296 298
187 215 265 273 20 6 180 121 65 30 23 7 347 334 292 257 227 185 190 194 196 201 207 206 208 210 218 214 202 217 225 232 245 245 252 264 275 281 284 289 294 295 298 300
12 282 241 275 259 261 245 255 356 342 347 348 341 335 322 304 247 220 200 199 206 207 200 202 208 210 211 205 207 216 225 236 248 251 259 265 273 281 286 290 295 299 301 302
269 285 281 284 272 267 255 254 272 282 293 305 317 309 282 231 208 177 175 185 190 199 197 199 210 209 211 216 211 216 227 238 245 251 259 269 279 285 290 295 296 298 298 298
218 267 228 341 351 347 299 260 256 255 275 282 300 304 258 174 147 142 155 165 172 171 181 196 204 207 212 213 217 224 236 244 250 258 265 275 284 289 293 293 294 297 300 302
257 334 309 322 335 357 19 13 288 231 238 270 286 274 185 167 156 156 160 167 174 181 186 193 200 205 208 218 229 239 244 247 255 265 272 281 288 292 292 293 295 297 298 301
250 254 271 260 259 307 325 344 353 282 248 264 257 180 173 159 157 159 159 165 170 172 177 181 184 192 208 223 236 242 248 256 265 273 280 286 289 291 293 293 293 294 298 299
265 243 242 260 280 305 304 282 278 251 270 252 159 152 146 147 148 150 150 151 155 158 163 174 188 206 227 240 247 250 255 262 272 280 285 288 291 293 294 295 297 303 304 302
312 284 258 255 262 256 295 336 141 153 151 149 154 156 147 140 130 126 126 125 123 132 159 176 201 230 240 248 250 255 264 272 280 285 289 292 295 296 299 302 304 306 308 306
293 67 21 273 231 205 44 121 143 139 136 139 144 140 128 118 114 113 118 126 138 163 194 210 223 236 242 247 256 267 276 283 288 292 293 294 299 303 302 304 307 308 310 311
246 214 129 55 101 187 190 72 156 151 146 141 140 134 131 128 125 120 119 124 142 185 212 227 241 254 262 268 273 281 288 290 290 291 295 299 299 302 305 308 310 313 315 313
206 169 224 248 269 183 180 168 166 164 158 153 153 147 141 136 132 128 130 166 209 239 255 261 265 270 273 280 285 286 286 288 293 296 296 299 305 308 311 313 316 316 314 315
173 177 163 158 152 155 164 171 168 162 163 163 162 162 169 171 167 204 254 256 254 265 278 283 286 289 288 286 286 290 295 296 295 299 304 306 310 314 317 317 318 319 319 319
159 161 155 140 143 136 133 144 150 156 163 167 173 184 197 228 255 270 270 268 283 292 293 292 288 288 290 297 306 303 300 304 308 309 313 318 322 323 323 323 323 322 320 318
134 129 135 142 142 142 129 125 126 133 143 151 157 158 162 198 226 251 274 279 288 291 300 306 314 321 323 316 311 315 316 317 321 325 327 328 328 328 327 325 323 321 320 320
141 135 133 133 132 134 130 126 122 118 118 118 121 125 127 140 235 292 283 279 308 321 327 339 339 332 332 341 340 339 337 340 340 339 335 333 332 330 328 325 324 322 321 320
139 135 133 131 132 131 129 123 121 119 120 119 126 139 152 192 291 298 319 333 346 2 9 354 5 10 4 0 357 356 353 348 343 339 336 334 331 328 325 322 320 319 318 318
144 140 139 137 133 131 128 124 124 123 126 128 114 10 323 313 299 294 227 157 113 86 41 26 21 17 11 7 4 357 351 346 342 338 334 330 326 323 321 319 320 321 321 323
144 146 146 141 137 134 129 127 131 119 137 255 253 249 251 212 158 154 148 127 81 42 26 23 20 14 8 1 356 351 346 343 339 333 329 327 326 325 325 325 325 324 324 324
159 159 157 153 152 154 153 147 142 239 259 265 260 221 185 162 153 135 105 67 43 36 31 22 13 5 358 353 349 347 343 338 336 335 335 334 335 335 334 333 330 328 326 323
Wind_Speed_850mb
6 7 5 1 8 6 6 2 4 4 4 5 10 10 23 42 45 44 44 50 63 69 67 60 50 43 35 31 34 34 29 24 20 16 13 10 8 7 7 10 13 14 16 18
10 11 11 6 3 7 5 2 3 1 2 6 11 21 22 32 44 43 47 52 65 68 68 61 51 43 36 34 40 33 29 24 20 17 15 12 11 9 10 13 17 19 20 22
7 12 13 8 8 9 3 4 7 7 3 10 6 12 34 40 47 49 52 55 69 75 69 61 52 42 35 41 39 34 30 25 21 19 17 13 11 12 14 17 20 21 23 25
4 8 4 7 3 5 10 9 12 2 2 7 9 9 29 39 48 50 49 53 63 73 69 59 51 44 36 46 41 37 31 26 23 20 16 14 12 14 16 19 22 25 27 29
3 3 11 5 2 6 8 3 5 12 9 1 10 8 4 25 37 42 40 42 54 62 67 63 58 48 44 51 42 36 31 27 22 18 17 15 15 16 20 24 27 29 30 32
4 1 7 9 5 4 4 8 7 3 5 9 9 4 7 5 22 28 29 33 45 51 65 66 60 50 47 49 41 37 31 25 23 19 15 19 19 22 25 28 31 32 32 33
2 3 14 11 9 4 11 5 7 11 11 5 7 10 6 12 6 19 26 30 36 43 55 65 60 51 50 49 40 30 29 27 22 14 22 23 26 27 29 31 31 31 33 36
4 6 11 4 6 5 3 3 8 15 16 7 10 13 9 10 4 15 25 32 34 36 43 56 59 51 48 47 33 30 31 25 17 26 26 27 28 28 29 31 32 32 35 37
13 9 6 3 3 6 2 3 5 13 14 16 16 13 9 7 6 13 21 24 26 30 36 49 52 48 41 37 32 33 29 26 29 28 26 27 28 29 32 32 32 33 35 38
5 2 11 21 20 14 8 3 8 12 16 18 20 20 15 7 6 8 12 15 13 19 27 40 44 40 29 27 29 34 30 28 30 28 27 30 30 31 32 32 33 35 37 38
10 19 30 30 29 21 19 23 21 15 14 13 16 13 9 5 6 10 13 15 13 13 21 29 32 31 25 29 36 31 29 30 30 29 30 31 31 33 32 33 36 37 38 40
10 3 6 4 9 9 9 21 19 19 16 14 14 10 4 5 9 9 9 11 13 14 21 27 29 30 30 34 29 25 26 28 27 28 31 32 33 34 35 37 38 39 41 45
7 4 7 9 12 12 13 10 4 10 12 10 9 4 7 9 11 13 14 14 13 13 18 24 26 26 23 22 22 22 25 27 29 31 32 33 35 37 38 39 40 42 44 47
29 29 24 26 13 11 12 13 13 5 8 9 6 7 10 10 9 11 14 15 17 18 19 20 20 17 17 19 22 25 27 28 30 31 34 37 39 40 41 42 43 42 47 49
19 26 32 17 11 13 17 19 13 6 4 1 4 11 13 13 14 17 19 20 20 18 17 15 14 15 16 19 22 24 27 30 32 35 37 39 40 42 43 45 47 52 52 49
6 11 23 29 22 13 9 5 5 5 6 8 11 17 20 21 23 24 22 19 16 12 10 8 9 16 19 21 24 26 28 32 35 37 38 39 40 41 42 46 51 52 51 52
20 2 11 6 11 13 4 2 6 9 14 14 21 27 28 28 26 23 18 15 11 7 7 11 19 21 20 22 24 27 30 33 35 37 37 39 39 41 45 48 49 48 48 50
14 13 2 11 6 16 10 3 8 14 18 21 27 29 27 25 21 17 13 11 8 7 10 13 15 16 18 21 24 28 31 33 35 36 37 36 37 42 44 45 46 47 46 43
9 16 2 7 5 12 19 10 17 22 24 27 25 23 21 17 13 9 7 7 8 10 11 14 16 19 21 24 27 29 31 33 32 32 33 35 39 40 42 44 44 44 45 45
8 22 6 5 10 18 19 14 20 23 24 23 20 18 15 10 5 3 4 8 11 12 14 17 19 20 21 23 25 25 26 26 28 29 33 35 37 38 39 40 42 43 44 45
22 22 13 12 19 19 17 20 20 20 21 21 19 14 9 6 6 7 9 10 11 14 14 14 15 16 16 16 18 20 23 24 26 29 31 33 35 36 38 39 41 43 45 49
32 21 20 26 24 21 21 22 22 19 17 14 11 7 3 2 3 5 7 7 7 8 8 9 9 12 15 18 18 18 21 22 24 27 29 32 34 35 37 39 42 45 50 56
25 29 33 30 27 27 29 27 26 24 22 21 17 12 8 3 1 2 4 4 5 6 6 7 10 10 10 14 16 17 19 22 25 28 30 33 35 37 40 44 49 56 61 63
38 40 37 37 35 33 33 34 30 26 20 15 11 7 4 1 3 3 4 5 4 5 4 4 7 9 13 15 17 20 23 25 26 29 31 35 39 44 49 55 58 59 58 57
44 40 38 37 35 33 28 26 21 17 11 7 4 2 4 7 6 2 1 2 3 4 6 10 13 15 17 19 22 23 25 28 31 34 39 43 47 50 52 52 52 52 51 50
46 44 40 35 28 23 18 15 10 7 2 3 6 5 3 2 4 6 7 6 6 9 10 12 13 15 18 21 23 26 29 33 37 40 42 44 45 44 45 44 44 46 49 51
48 43 38 33 26 19 13 9 4 3 6 7 5 4 4 5 7 8 7 7 7 8 9 11 13 16 19 23 26 29 31 33 35 36 37 39 41 44 46 48 50 52 55 57
Wind_Direction_850mb
18 348 288 249 132 160 158 187 132 335 18 64 185 179 162 168 174 174 183 190 185 184 186 185 187 187 183 181 177 179 176 173 178 175 185 194 221 244 273 296 303 310 310 309
354 346 13 11 89 189 217 97 292 276 342 35 94 141 159 178 173 176 189 199 194 195 195 193 192 191 191 192 185 184 180 185 187 192 202 213 233 262 283 298 309 308 309 307
308 350 336 6 240 194 183 199 169 212 166 150 99 155 187 196 199 199 200 199 199 201 201 198 197 197 201 192 191 190 189 193 197 204 214 227 250 276 295 300 299 303 304 305
253 7 25 237 290 221 208 224 221 321 93 72 115 213 223 219 212 214 212 206 206 205 202 201 202 202 202 196 198 196 195 197 206 215 230 245 266 277 286 297 304 308 305 301
27 185 281 320 86 159 189 340 238 221 218 209 43 48 279 229 226 227 223 215 213 212 206 203 204 204 204 201 202 200 201 205 213 226 242 259 269 285 298 303 302 298 299 300
57 94 208 256 285 267 208 25 353 5 237 209 117 63 268 315 235 226 226 227 219 218 212 209 207 208 207 206 208 206 207 212 217 223 267 273 284 292 293 292 293 295 295 298
149 235 284 245 259 289 67 250 50 51 23 201 144 213 284 324 270 214 216 210 213 221 213 209 211 208 208 210 213 209 210 215 220 252 287 269 273 279 283 287 291 297 301 299
95 12 302 235 97 92 221 159 96 74 49 47 228 243 291 327 264 195 198 198 203 209 208 207 210 209 211 209 201 215 220 219 236 271 251 258 268 276 287 291 295 297 296 298
187 215 265 273 20 6 180 121 65 30 23 7 347 334 292 257 227 185 190 194 196 201 207 206 208 210 218 214 202 217 225 232 245 245 252 264 275 281 284 289 294 295 298 300
12 282 241 275 259 261 245 255 356 342 347 348 341 335 322 304 247 220 200 199 206 207 200 202 208 210 211 205 207 216 225 236 248 251 259 265 273 281 286 290 295 299 301 302
269 285 281 284 272 267 255 254 272 282 293 305 317 309 282 231 208 177 175 185 190 199 197 199 210 209 211 216 211 216 227 238 245 251 259 269 279 285 290 295 296 298 298 298
218 267 228 341 351 347 299 260 256 255 275 282 300 304 258 174 147 142 155 165 172 171 181 196 204 207 212 213 217 224 236 244 250 258 265 275 284 289 293 293 294 297 300 302
257 334 309 322 335 357 19 13 288 231 238 270 286 274 185 167 156 156 160 167 174 181 186 193 200 205 208 218 229 239 244 247 255 265 272 281 288 292 292 293 295 297 298 301
250 254 271 260 259 307 325 344 353 282 248 264 257 180 173 159 157 159 159 165 170 172 177 181 184 192 208 223 236 242 248 256 265 273 280 286 289 291 293 293 293 294 298 299
265 243 242 260 280 305 304 282 278 251 270 252 159 152 146 147 148 150 150 151 155 158 163 174 188 206 227 240 247 250 255 262 272 280 285 288 291 293 294 295 297 303 304 302
312 284 258 255 262 256 295 336 141 153 151 149 154 156 147 140 130 126 126 125 123 132 159 176 201 230 240 248 250 255 264 272 280 285 289 292 295 296 299 302 304 306 308 306
293 67 21 273 231 205 44 121 143 139 136 139 144 140 128 118 114 113 118 126 138 163 194 210 223 236 242 247 256 267 276 283 288 292 293 294 299 303 302 304 307 308 310 311
246 214 129 55 101 187 190 72 156 151 146 141 140 134 131 128 125 120 119 124 142 185 212 227 241 254 262 268 273 281 288 290 290 291 295 299 299 302 305 308 310 313 315 313
206 169 224 248 269 183 180 168 166 164 158 153 153 147 141 136 132 128 130 166 209 239 255 261 265 270 273 280 285 286 286 288 293 296 296 299 305 308 311 313 316 316 314 315
173 177 163 158 152 155 164 171 168 162 163 163 162 162 169 171 167 204 254 256 254 265 278 283 286 289 288 286 286 290 295 296 295 299 304 306 310 314 317 317 318 319 319 319
159 161 155 140 143 136 133 144 150 156 163 167 173 184 197 228 255 270 270 268 283 292 293 292 288 288 290 297 306 303 300 304 308 309 313 318 322 323 323 323 323 322 320 318
134 129 135 142 142 142 129 125 126 133 143 151 157 158 162 198 226 251 274 279 288 291 300 306 314 321 323 316 311 315 316 317 321 325 327 328 328 328 327 325 323 321 320 320
141 135 133 133 132 134 130 126 122 118 118 118 121 125 127 140 235 292 283 279 308 321 327 339 339 332 332 341 340 339 337 340 340 339 335 333 332 330 328 325 324 322 321 320
139 135 133 131 132 131 129 123 121 119 120 119 126 139 152 192 291 298 319 333 346 2 9 354 5 10 4 0 357 356 353 348 343 339 336 334 331 328 325 322 320 319 318 318
144 140 139 137 133 131 128 124 124 123 126 128 114 10 323 313 299 294 227 157 113 86 41 26 21 17 11 7 4 357 351 346 342 338 334 330 326 323 321 319 320 321 321 323
144 146 146 141 137 134 129 127 131 119 137 255 253 249 251 212 158 154 148 127 81 42 26 23 20 14 8 1 356 351 346 343 339 333 329 327 326 325 325 325 325 324 324 324
159 159 157 153 152 154 153 147 142 239 259 265 260 221 185 162 153 135 105 67 43 36 31 22 13 5 358 353 349 347 343 338 336 335 335 334 335 335 334 333 330 328 326 323